Regional Weather Roundup
Issued by NWS

Home | Current Version | Previous Version | Text Only | Print | Product List | Glossary Off
Versions: 1 2 3 4 5 6 7 8 9 10 11 12 13 14 15 16 17 18 19 20 21 22 23 24 25 26 27 28 29 30 31 32 33 34 35 36 37 38 39 40 41 42 43 44 45 46 47 48 49 50

789
ASUS44 KLIX 010005
RWRLA
LOUISIANA WEATHER ROUNDUP
NATIONAL WEATHER SERVICE NEW ORLEANS LA
700 PM CDT SUN AUG 31 2014

NOTE: "FAIR" INDICATES FEW OR NO CLOUDS BELOW 12,000 FEET WITH NO
      SIGNIFICANT WEATHER AND/OR OBSTRUCTIONS TO VISIBILITY.
      SKY/WX - SKY CONDITION AND SIGNIFICANT WEATHER.
      TMP - AIR TEMPERATURE.    DP   - DEWPOINT TEMPERATURE.
      RH  - RELATIVE HUMIDITY.  PRES - PRESSURE.
      HX  - HEAT INDEX.         WCI  - WIND CHILL INDEX.

*  THESE STATIONS ARE NOT NWS OR FAA STATIONS AND ARE NOT UNDER
   NWS QUALITY CONTROL.

LAZ040-048-061>063-065-066-069-010100-
SOUTHEAST LOUISIANA

CITY           SKY/WX    TMP DP  RH WIND       PRES   REMARKS
N.O. AUDUBON   NOT AVBL
N.O. INTL ARPT MOCLDY    87  75  67 S8        30.03S HX  96
6HR MIN TEMP:  87; 6HR MAX TEMP:  92; 6HR PCP: TRACE;

N.O. LAKEFRONT PTCLDY    86  75  69 SE9       30.03S HX  95
6HR MIN TEMP:  86; 6HR MAX TEMP:  92;

N.O. DOWNTOWN* FAIR      88  73  62 SE5       30.04S HX  96
6HR MIN TEMP:  88; 6HR MAX TEMP:  93;

SLIDELL        PTCLDY    86  75  69 SE7       30.04S HX  95
6HR MIN TEMP:  86; 6HR MAX TEMP:  92;

BATON ROUGE    PTCLDY    87  69  54 S8        30.02R
6HR MIN TEMP:  87; 6HR MAX TEMP:  94;

BOOTHVILLE     CLEAR     86  76  71 SE8       30.05S HX  96
6HR MIN TEMP:  86; 6HR MAX TEMP:  90;

BELLE CHASSE   CLEAR     87  73  62 S8        30.03R
6HR MIN TEMP:  87; 6HR MAX TEMP:  91;

BOGALUSA*      FAIR      88  71  57 S6        30.06R
6HR MIN TEMP:  88; 6HR MAX TEMP:  94;

GALLIANO*      NOT AVBL
NEW ROADS*     FAIR      87  74  66 S5        30.02R HX  95
6HR MIN TEMP:  87; 6HR MAX TEMP:  91;

GONZALES*      CLOUDY    87  76  71 S7        30.02R HX  97
6HR MIN TEMP:  87; 6HR MAX TEMP:  92;

HAMMOND*       PTCLDY    86  72  62 SE6       30.05S
HOUMA*         PTCLDY    84  73  70 SE7       30.03S
PORT FOURCHON* NOT AVBL

$$

LAZ041-044-053-054-010100-
SOUTHWEST LOUISIANA

CITY           SKY/WX    TMP DP  RH WIND       PRES   REMARKS
LAKE CHARLES   MOCLDY    81  74  79 S7        29.98F
6HR MIN TEMP:  81; 6HR MAX TEMP:  90; 6HR PCP: TRACE;

LAFAYETTE      PTCLDY    86  73  65 S8        30.01S
6HR MIN TEMP:  86; 6HR MAX TEMP:  91;

PATTERSON      PTCLDY    84  75  74 SE6       30.05S
6HR MIN TEMP:  84; 6HR MAX TEMP:  91;

SALT POINT       N/A     88  77  69 SE3       30.01S HX 100
6HR MIN TEMP:  88; 6HR MAX TEMP:  93; 6HR PCP:  0.10;

NEW IBERIA     PTCLDY    85  76  74 S7        30.02S
6HR MIN TEMP:  85; 6HR MAX TEMP:  92;

CHENAULT AIRPK MOCLDY    82  73  74 S12       29.99F

$$

LAZ027-028-010100-
CENTRAL LOUISIANA

CITY           SKY/WX    TMP DP  RH WIND       PRES   REMARKS
FORT POLK      MOCLDY    77  75  93 CALM      30.00F
6HR MIN TEMP:  77; 6HR MAX TEMP:  86; 6HR PCP:  0.10;

ALEXANDRIA INT CLOUDY    78  72  81 CALM      29.99S
6HR MIN TEMP:  76; 6HR MAX TEMP:  88; 6HR PCP: TRACE;

ALEXANDRIA     CLOUDY    80  72  76 W3        30.01F
6HR MIN TEMP:  80; 6HR MAX TEMP:  91;


$$

LAZ001-002-010100-
NORTHWEST LOUISIANA

CITY           SKY/WX    TMP DP  RH WIND       PRES   REMARKS
SHREVEPORT     MOCLDY    83  69  62 S10       29.97S
6HR MIN TEMP:  83; 6HR MAX TEMP:  92;

BARKSDALE AFB  MOCLDY    85  70  60 SW12      29.97S
6HR MIN TEMP:  82; 6HR MAX TEMP:  91; 6HR PCP:  0.03;

DTN SHREVEPORT MOCLDY    84  69  60 S14       29.96S
6HR MIN TEMP:  81; 6HR MAX TEMP:  90; 6HR PCP: TRACE;


$$

LAZ014-016-010100-
NORTHEAST LOUISIANA

CITY           SKY/WX    TMP DP  RH WIND       PRES   REMARKS
MONROE         MOCLDY    82  70  66 S7        30.01S
6HR MIN TEMP:  82; 6HR MAX TEMP:  88;

TALLULAH       MOCLDY    82  76  81 S5        30.02S
6HR MIN TEMP:  82; 6HR MAX TEMP:  88;


$$




USA.gov is the U.S. government's official web portal to all federal, state and local government web resources and services.